TimeHST,TemperatureF,Dew PointF,Humidity,Sea Level PressureIn,VisibilityMPH,Wind Direction,Wind SpeedMPH,Gust SpeedMPH,PrecipitationIn,Events,Conditions,WindDirDegrees,DateUTC
12:54 AM,72.0,62.1,71,30.04,10.0,Calm,Calm,-,N/A,,Clear,0,2012-10-04 10:54:00
1:54 AM,72.0,62.1,71,30.02,10.0,NE,4.6,-,N/A,,Clear,50,2012-10-04 11:54:00
2:54 AM,66.0,60.1,81,30.02,10.0,Calm,Calm,-,N/A,,Clear,0,2012-10-04 12:54:00
3:54 AM,66.9,61.0,81,30.01,10.0,Calm,Calm,-,N/A,,Clear,0,2012-10-04 13:54:00
4:54 AM,72.0,62.1,71,30.01,10.0,NNE,4.6,-,N/A,,Clear,20,2012-10-04 14:54:00
5:54 AM,70.0,62.1,76,30.02,10.0,North,3.5,-,N/A,,Clear,10,2012-10-04 15:54:00
6:54 AM,69.1,61.0,75,30.04,10.0,ENE,3.5,-,N/A,,Clear,70,2012-10-04 16:54:00
7:54 AM,78.1,62.1,58,30.05,10.0,Calm,Calm,-,N/A,,Clear,0,2012-10-04 17:54:00
8:54 AM,79.0,61.0,54,30.06,10.0,South,6.9,-,N/A,,Clear,170,2012-10-04 18:54:00
9:54 AM,82.0,61.0,49,30.05,10.0,SE,6.9,-,N/A,,Clear,140,2012-10-04 19:54:00
10:54 AM,82.9,62.1,49,30.04,10.0,South,9.2,-,N/A,,Partly Cloudy,170,2012-10-04 20:54:00
11:54 AM,79.0,64.0,60,30.02,10.0,South,10.4,18.4,N/A,,Clear,170,2012-10-04 21:54:00
12:54 PM,82.0,66.0,58,30.01,10.0,SSW,6.9,-,N/A,,Clear,200,2012-10-04 22:54:00
1:54 PM,82.9,66.9,58,29.99,10.0,SSE,13.8,19.6,N/A,,Scattered Clouds,150,2012-10-04 23:54:00
2:54 PM,80.1,66.0,62,29.99,10.0,South,9.2,19.6,N/A,,Overcast,190,2012-10-05 00:54:00
2:55 PM,80.6,66.2,61,29.98,10.0,South,8.1,18.4,N/A,,Mostly Cloudy,170,2012-10-05 00:55:00
3:54 PM,80.1,66.0,62,29.99,10.0,South,11.5,-,N/A,,Mostly Cloudy,170,2012-10-05 01:54:00
4:54 PM,80.1,66.9,64,29.99,10.0,South,9.2,-,N/A,,Scattered Clouds,190,2012-10-05 02:54:00
5:54 PM,78.1,66.0,66,30.00,10.0,SSE,8.1,-,N/A,,Scattered Clouds,160,2012-10-05 03:54:00
6:54 PM,75.9,66.0,71,30.01,10.0,SE,3.5,-,N/A,,Clear,140,2012-10-05 04:54:00
7:54 PM,75.0,66.9,76,30.02,10.0,Calm,Calm,-,N/A,,Clear,0,2012-10-05 05:54:00
8:54 PM,72.0,64.9,78,30.04,10.0,North,3.5,-,N/A,,Clear,10,2012-10-05 06:54:00
9:54 PM,71.1,64.9,81,30.05,10.0,Calm,Calm,-,N/A,,Clear,0,2012-10-05 07:54:00
10:54 PM,68.0,63.0,84,30.05,10.0,Calm,Calm,-,N/A,,Clear,0,2012-10-05 08:54:00
11:54 PM,69.1,63.0,81,30.04,10.0,East,3.5,-,N/A,,Clear,80,2012-10-05 09:54:00